Tracking 19717 objects as of 25-Jun-2019
HD Live streaming from Space Station
objects crossing your sky now

SL-14 DEB

Track SL-14 DEB now!
10-day predictions


NORAD ID: 25199
Int'l Code: 1987-068AA
Perigee: 916.6 km
Apogee: 1,058.3 km
Inclination: 82.4 °
Period: 104.7 minutes
Semi major axis: 7358 km
RCS: 0.011 m2 (small)
Launch date: August 18, 1987
Source: Commonwealth of Independent States (former USSR) (CIS)
Launch site: PLESETSK MISSILE AND SPACE COMPLEX (PKMTR)

Note: This is SATELLITE DEBRIS
aabbcc
Your satellite tracking list
Your tracking list is empty




NASA's NSSDC Master Catalog

Two Line Element Set (TLE):
1 25199U 87068AA  19175.70222147 +.00000197 +00000-0 +18528-3 0  9997
2 25199 082.3651 144.9391 0096280 333.0987 026.5193 13.75385303067728
Source of the keplerian elements: AFSPC